Regional Weather Roundup
Issued by NWS Jackson, KY

Home | Current Version | Previous Version | Text Only | Print | Product List | Glossary Off
Versions: 1 2 3 4 5 6 7 8 9 10 11 12 13 14 15 16 17 18 19 20 21 22 23 24 25 26 27 28 29 30 31 32 33 34 35 36 37 38 39 40 41 42 43 44 45 46 47 48 49 50

000
ASUS43 KJKL 220310
RWRJKL

EAST KENTUCKY HOURLY WEATHER ROUNDUP
NATIONAL WEATHER SERVICE JACKSON KY
1100 PM EDT THU MAY 21 2015

NOTE: "FAIR" INDICATES FEW OR NO CLOUDS BELOW 12,000 FEET WITH
NO SIGNIFICANT WEATHER AND/OR OBSTRUCTIONS TO VISIBILITY.

* THESE REPORTS ARE NOT UNDER NWS QUALITY CONTROL AND MAY NOT
  REPORT WEATHER SUCH AS PRECIPITATION AND FOG.

KYZ079-080-083-085-087-088-110-112-115-119-120-220400
...EASTERN KENTUCKY...

CITY           SKY/WX    TMP DP  RH WIND       PRES   REMARKS
JACKSON        CLOUDY    49  47  93 CALM      30.16R FOG
LONDON         CLOUDY    52  46  80 W3        30.17R
SOMERSET*      CLOUDY    50  45  81 NW3       30.20R
MONTICELLO*    CLOUDY    53  48  83 NW5       30.22R
MIDDLESBORO*   HVY RAIN  52  48  88 N5        30.17R
HARLAN APT*    CLOUDY    50  45  81 NW7       30.16R
BLACK MTN*       N/A     39  39 100 NE3         N/A
PIKEVILLE APT* CLOUDY    48  48 100 CALM      30.14R FOG
BIG SANDY*     PTCLDY    49  48  97 CALM      30.15R
MOREHEAD APT*  CLEAR     50  45  81 CALM      30.17R
$$

KYZ035-036-041-042-044-050-067-078-099-220400
...CENTRAL KENTUCKY...

CITY           SKY/WX    TMP DP  RH WIND       PRES   REMARKS
MT STERLING*   CLEAR     45  45 100 W3        30.17R
FLEMING/MASON* CLEAR     46  43  87 SW5       30.16R
DANVILLE*      CLEAR     46  45  93 CALM      30.19R
RICHMOND*      CLEAR     48  45  87 CALM      30.17R
LEXINGTON      CLEAR     48  42  80 CALM      30.17R
FRANKFORT      CLEAR     46  41  82 CALM      30.16R
$$

KYZ091>093-OHZ055-061-077-WVZ005-015-034-035-042-220400
...SOUTHERN OHIO/WEST VIRGINIA...

CITY           SKY/WX    TMP DP  RH WIND       PRES   REMARKS
COVINGTON      CLEAR     49  41  74 SW3       30.13R
COLUMBUS       CLEAR     51  39  63 CALM      30.08R
DAYTON         CLEAR     48  38  68 SW8       30.10R
WILMINGTON     CLEAR     46  40  79 S5        30.10R
HUNTINGTON     CLEAR     49  46  90 SW5       30.12R
CHARLESTON     PTCLDY    50  47  89 W6        30.11R
PINEVILLE*     CLOUDY    49  49  98 MISG      30.16R
BECKLEY        CLOUDY    46  43  89 NW8       30.10R FOG
BLUEFIELD      CLOUDY    48  44  86 NW7       30.10R
$$

VAZ002-007-008-TNZ017-027-036-066-071-220400
...SOUTHWEST VIRGINIA/EAST TENNESSEE...

CITY           SKY/WX    TMP DP  RH WIND       PRES   REMARKS
WISE*          RAIN      46  46 100 N7        30.14R
JONESVILLE*    CLOUDY    50  46  87 N5        30.17R
ABINGDON*      CLOUDY    53  47  81 N9G18     30.11R
BRISTOL        LGT RAIN  53  49  86 NW9       30.12R
KNOXVILLE      CLOUDY    55  47  74 N12       30.14R
OAK RIDGE      CLOUDY    56  47  71 VRB3      30.17R
CROSSVILLE     CLOUDY    50  45  83 NW9       30.18R
NASHVILLE      MOCLDY    53  45  74 N5        30.21R
$$

...KEY TO REMARKS...
VSB - VISIBILITY IN MILES
WCI - WIND CHILL INDEX
HX  - HEAT INDEX

$$


USA.gov is the U.S. government's official web portal to all federal, state and local government web resources and services.